DW8913 Weather Reports


Display with metric or nautical units.
time (UTC)temp
F
wind
direction
speed
MPH
gust
MPH
rain 1hr
in
rain 24hr
in
rain mn
in
humidity
%
barometer
mb
20211205133128 43 46 0.0 0.0 0.00 0.00 0.00 69 1029.8
20211205131525 41 329 0.0 0.0 0.00 0.00 0.00 71 1029.6
20211205130128 40 32 0.0 0.0 0.00 0.00 0.00 73 1029.6
20211205124521 38 337 0.0 0.0 0.00 0.00 0.00 74 1029.5
20211205123149 38 339 0.0 0.0 0.00 0.00 0.00 74 1029.4
20211205121543 37 16 0.0 0.0 0.00 0.00 0.00 72 1029.3
20211205114541 37 312 0.0 0.0 0.00 0.00 0.00 71 1029.0
20211205111604 38 323 0.0 0.0 0.00 0.00 0.00 71 1028.5
20211205110002 38 1 0.0 0.0 0.00 0.00 0.00 72 1028.3
20211205104557 38 322 0.0 0.0 0.00 0.00 0.00 71 1028.0
20211205103035 38 350 0.0 0.0 0.00 0.00 0.00 69 1028.0
20211205100058 39 336 0.0 0.0 0.00 0.00 0.00 66 1027.8
20211205093055 40 315 0.0 0.0 0.00 0.00 0.00 68 1027.3
20211205091546 40 312 0.0 0.0 0.00 0.00 0.00 71 1027.0
20211205090127 40 281 0.0 0.0 0.00 0.00 0.00 73 1026.9
20211205084531 40 291 0.0 0.0 0.00 0.00 0.00 73 1026.7
20211205083129 40 326 0.0 0.0 0.00 0.00 0.00 75 1026.6
20211205081542 40 296 0.0 0.0 0.00 0.00 0.00 77 1026.4
20211205074532 40 290 0.0 0.0 0.00 0.00 0.00 82 1026.1
20211205071543 40 11 0.0 0.0 0.00 0.00 0.00 85 1025.6
20211205070013 41 293 0.0 0.0 0.00 0.00 0.00 90 1025.5
20211205064640 41 281 0.0 0.0 0.00 0.00 0.00 92 1025.4
20211205063039 42 292 0.0 0.0 0.00 0.00 0.00 92 1025.5
20211205061802 42 230 0.0 0.0 0.00 0.00 0.00 92 1025.3
20211205060048 43 250 0.0 0.0 0.00 0.00 0.00 91 1025.2
20211205053055 43 221 0.0 0.0 0.00 0.00 0.00 90 1024.8
20211205051522 43 221 0.0 0.0 0.00 0.00 0.00 90 1024.6
20211205050158 42 236 0.0 0.0 0.00 0.00 0.00 90 1024.3
20211205044711 42 219 0.0 0.0 0.00 0.00 0.00 89 1024.0
20211205043116 42 204 0.0 0.0 0.00 0.00 0.00 89 1023.9
20211205041536 42 208 0.0 0.0 0.00 0.00 0.00 88 1023.8
20211205034556 42 207 0.0 0.0 0.00 0.00 0.00 87 1023.6
20211205033016 42 178 0.0 0.0 0.00 0.00 0.00 89 1023.6
20211205031655 42 231 0.0 0.0 0.00 0.00 0.00 89 1023.8
20211205030017 42 225 0.0 0.0 0.00 0.00 0.00 89 1023.7
20211205024555 43 221 0.0 0.0 0.00 0.00 0.00 88 1023.3
20211205023109 44 165 0.0 0.0 0.00 0.00 0.00 86 1023.0
20211205021621 44 207 0.0 0.0 0.00 0.00 0.00 84 1022.9
20211205020039 44 185 0.0 0.0 0.00 0.00 0.00 81 1022.7
20211205013035 44 205 0.0 0.0 0.00 0.00 0.00 83 1022.6
20211205011502 44 207 0.0 0.0 0.00 0.00 0.00 82 1022.5
20211205010044 44 208 0.0 0.0 0.00 0.00 0.00 83 1022.3
20211205004642 44 214 0.0 0.0 0.00 0.00 0.00 84 1022.1
20211205003135 43 207 0.0 0.0 0.00 0.00 0.00 87 1021.9
20211205001519 43 206 0.0 0.0 0.00 0.00 0.00 89 1021.9
20211204234548 44 207 0.0 0.0 0.00 0.00 0.00 87 1021.5
20211204231553 45 197 0.0 0.0 0.00 0.00 0.00 86 1021.3
20211204230025 45 222 0.0 0.0 0.00 0.00 0.00 85 1021.1
20211204224625 46 221 0.0 0.0 0.00 0.00 0.00 83 1021.1
20211204223052 46 206 0.0 0.0 0.00 0.00 0.00 82 1021.0
20211204221638 47 49 0.0 0.0 0.00 0.00 0.00 81 1020.9
20211204220036 47 49 0.0 0.0 0.00 0.00 0.00 81 1020.7
20211204213115 48 49 0.0 0.0 0.00 0.00 0.00 79 1020.6
20211204211519 49 53 0.0 0.0 0.00 0.00 0.00 78 1020.3
20211204210158 49 44 0.0 0.0 0.00 0.00 0.00 78 1020.0
20211204204552 49 41 0.0 0.0 0.00 0.00 0.00 77 1020.1
20211204201542 50 41 0.0 0.0 0.00 0.00 0.00 76 1019.7
20211204200014 50 39 0.0 0.0 0.00 0.00 0.00 76 1019.4
20211204194711 50 49 0.0 0.0 0.00 0.00 0.00 75 1019.2
20211204193037 50 54 0.0 0.0 0.00 0.00 0.00 75 1019.5
20211204190132 50 54 0.0 0.0 0.00 0.00 0.00 75 1019.4
20211204184523 49 39 0.0 0.0 0.00 0.00 0.00 74 1019.7
20211204183131 50 345 0.0 0.0 0.00 0.00 0.00 73 1019.9
20211204181525 50 5 0.0 0.0 0.00 0.00 0.00 73 1019.9
20211204174556 50 2 0.0 0.0 0.00 0.00 0.00 72 1020.0
20211204173025 50 356 0.0 0.0 0.00 0.00 0.00 72 1020.1
20211204171600 49 6 0.0 0.0 0.00 0.00 0.00 73 1020.3
20211204170025 48 340 0.0 0.0 0.00 0.00 0.00 75 1020.4
20211204164740 48 27 0.0 0.0 0.00 0.00 0.00 73 1020.6
20211204163014 48 318 0.0 0.0 0.00 0.00 0.00 74 1020.9
20211204161634 48 356 0.0 0.0 0.00 0.00 0.00 72 1021.0
20211204160050 49 315 0.0 0.0 0.00 0.00 0.00 73 1021.0
20211204154610 48 321 0.0 0.0 0.00 0.00 0.00 73 1021.0
20211204153134 48 15 0.0 0.0 0.00 0.00 0.00 72 1021.0
20211204151508 48 11 0.0 0.0 0.00 0.00 0.00 72 1021.0
20211204150101 48 27 0.0 0.0 0.00 0.00 0.00 73 1020.9
20211204144517 48 17 0.0 0.0 0.00 0.00 0.00 72 1020.8
20211204143129 48 8 0.0 0.0 0.00 0.00 0.00 73 1020.8
20211204141538 48 20 0.0 0.0 0.00 0.00 0.00 73 1020.7
20211204134551 48 32 0.0 0.0 0.00 0.00 0.00 72 1020.3